Date String (YYYY-MM-DD hh:mm:ss) UTC,Instrument flags,absolute air pressure of the measurement (hPa),sample flow rate (lpm),inlet stack bypass flow (lpm),air temperature of the measurement (°C),ambient temperature measured by the external sensor (°C),aerosol sample conditioner tube jacket temperature (°C),OPC LED temperature (°C),internal box temperature (°C),relative humidity of the measurement (%),span deviation,mass concentration of particles derived from Lorenz-Mie calculation of OPC scattering (μg/m³),mass concentration of particles derived from Lorenz-Mie calculation of OPC scattering (μg/m³),mass concentration of particles derived from Lorenz-Mie calculation of OPC scattering (μg/m³)
DateTimeUTC,F1_M11,P_M11,Q1_M11,Q2_M11,T1_M11,T2_M11,T3_M11,T4_M11,T5_M11,U1_M11,ZSPAN_M11,X0_M11,X2_M11,X1_M11
2024-02-14 11:00:00,SystemResetWarning,0823.0,5.01,000.00,018.5,017.9,000.0,027.1,020.2,15.2,0000.0,0009.56,0005.38,0004.86
2024-02-14 11:01:00,SystemResetWarning,0823.1,5.00,000.00,018.5,017.9,000.0,027.1,020.2,15.0,0000.0,0009.39,0005.34,0004.86
2024-02-14 11:02:00,SystemResetWarning,0823.1,5.00,000.00,018.5,017.9,000.0,027.1,020.2,14.8,0000.0,0009.31,0005.29,0004.84
2024-02-14 11:03:00,SystemResetWarning,0823.0,4.99,000.00,018.5,017.9,000.0,027.1,020.2,14.7,0000.0,0009.34,0005.24,0004.79
2024-02-14 11:04:00,SystemResetWarning,0823.0,4.99,000.00,018.5,017.9,000.0,027.1,020.2,14.8,0000.0,0009.31,0005.18,0004.74
2024-02-14 11:05:00,SystemResetWarning,0823.1,5.02,000.00,018.5,017.9,000.0,027.1,020.2,14.9,0000.0,0009.74,0005.15,0004.71
2024-02-14 11:06:00,SystemResetWarning,0823.2,5.01,000.00,018.5,017.9,000.0,027.0,020.2,14.9,0000.0,0009.81,0005.14,0004.70
2024-02-14 11:07:00,SystemResetWarning,0823.2,4.99,000.00,018.4,017.9,000.0,027.0,020.2,14.9,0000.0,0009.29,0005.09,0004.66
2024-02-14 11:08:00,SystemResetWarning,0822.9,4.99,000.00,018.5,017.9,000.0,027.0,020.3,14.9,0000.0,0008.74,0005.03,0004.61
2024-02-14 11:09:00,SystemResetWarning,0822.8,5.01,000.00,018.5,017.9,000.0,027.0,020.2,14.9,0000.0,0009.26,0004.98,0004.54
2024-02-14 11:10:00,SystemResetWarning,0823.0,5.01,000.00,018.5,018.0,000.0,027.0,020.2,14.9,0000.0,0009.23,0004.91,0004.48
2024-02-14 11:11:00,SystemResetWarning,0823.0,5.00,000.00,018.4,018.0,000.0,027.0,020.2,14.9,0000.0,0009.14,0004.87,0004.44
2024-02-14 11:12:00,SystemResetWarning,0822.9,4.98,000.00,018.5,018.0,000.0,027.0,020.3,14.9,0000.0,0010.06,0004.83,0004.39
2024-02-14 11:13:00,SystemResetWarning,0822.9,5.00,000.00,018.5,018.0,000.0,027.0,020.3,14.9,0000.0,0010.84,0004.83,0004.36
2024-02-14 11:14:00,SystemResetWarning,0823.2,5.02,000.00,018.5,018.0,000.0,027.0,020.2,14.8,0000.0,0011.20,0004.87,0004.35
2024-02-14 11:15:00,SystemResetWarning,0823.0,5.00,000.00,018.4,017.9,000.0,027.0,020.2,14.8,0000.0,0011.73,0004.88,0004.34
2024-02-14 11:16:00,SystemResetWarning,0822.9,5.00,000.00,018.4,017.9,000.0,027.0,020.2,14.8,0000.0,0011.85,0004.86,0004.32
2024-02-14 11:17:00,SystemResetWarning,0822.6,4.99,000.00,018.4,017.9,000.0,027.0,020.2,14.8,0000.0,0012.66,0004.85,0004.29
2024-02-14 11:18:00,SystemResetWarning,0822.6,5.01,000.00,018.4,017.9,000.0,027.0,020.2,14.7,0000.0,0012.79,0004.83,0004.30
2024-02-14 11:19:00,SystemResetWarning,0822.6,5.01,000.00,018.4,017.9,000.0,027.0,020.2,14.8,0000.0,0012.83,0004.83,0004.31
2024-02-14 11:20:00,SystemResetWarning,0822.8,5.00,000.00,018.4,017.9,000.0,027.0,020.2,14.9,0000.0,0012.31,0004.83,0004.32
2024-02-14 11:21:00,SystemResetWarning,0822.7,4.99,000.00,018.4,017.9,000.0,027.0,020.2,15.0,0000.0,0012.92,0004.84,0004.33
2024-02-14 11:22:00,SystemResetWarning,0822.9,5.00,000.00,018.4,017.9,000.0,027.0,020.2,14.9,0000.0,0013.46,0004.83,0004.32
2024-02-14 11:23:00,SystemResetWarning,0823.1,5.00,000.00,018.4,017.9,000.0,027.0,020.2,14.8,0000.0,0012.73,0004.81,0004.31
2024-02-14 11:24:00,SystemResetWarning,0822.8,5.01,000.00,018.4,017.9,000.0,027.0,020.2,14.9,0000.0,0011.63,0004.79,0004.30
2024-02-14 11:25:00,SystemResetWarning,0823.1,5.01,000.00,018.4,017.9,000.0,027.0,020.2,15.0,0000.0,0011.25,0004.73,0004.29
2024-02-14 11:26:00,SystemResetWarning,0823.0,4.99,000.00,018.4,017.9,000.0,027.0,020.2,14.9,0000.0,0010.68,0004.72,0004.29
2024-02-14 11:27:00,SystemResetWarning,0823.0,4.99,000.00,018.4,017.9,000.0,027.0,020.2,14.8,0000.0,0010.26,0004.74,0004.29
2024-02-14 11:28:00,SystemResetWarning,0822.8,5.02,000.00,018.4,017.9,000.0,027.0,020.2,14.8,0000.0,0009.38,0004.73,0004.28
2024-02-14 11:29:00,SystemResetWarning,0822.7,5.00,000.00,018.4,017.8,000.0,026.9,020.1,15.0,0000.0,0009.62,0004.75,0004.26
2024-02-14 11:30:00,SystemResetWarning,0822.6,4.99,000.00,018.4,017.8,000.0,026.9,020.1,15.1,0000.0,0009.67,0004.77,0004.25
2024-02-14 11:31:00,SystemResetWarning,0822.8,4.99,000.00,018.3,017.8,000.0,026.9,020.1,15.0,0000.0,0009.69,0004.77,0004.25
2024-02-14 11:32:00,SystemResetWarning,0822.7,5.01,000.00,018.3,017.8,000.0,026.9,020.1,14.8,0000.0,0009.81,0004.76,0004.24
2024-02-14 11:33:00,SystemResetWarning,0822.7,5.01,000.00,018.3,017.8,000.0,026.9,020.1,14.8,0000.0,0009.49,0004.77,0004.24
2024-02-14 11:34:00,SystemResetWarning,0822.6,5.00,000.00,018.3,017.8,000.0,026.9,020.1,14.6,0000.0,0009.50,0004.79,0004.25
2024-02-14 11:35:00,SystemResetWarning,0822.7,5.00,000.00,018.3,017.8,000.0,026.9,020.1,14.8,0000.0,0009.52,0004.79,0004.26
2024-02-14 11:36:00,SystemResetWarning,0822.8,4.99,000.00,018.3,017.8,000.0,026.9,020.1,14.9,0000.0,0009.49,0004.79,0004.27
2024-02-14 11:37:00,SystemResetWarning,0822.9,4.99,000.00,018.3,017.7,000.0,026.9,020.0,15.0,0000.0,0009.52,0004.79,0004.27
2024-02-14 11:38:00,SystemResetWarning,0823.0,4.99,000.00,018.3,017.7,000.0,026.9,020.0,15.1,0000.0,0009.46,0004.79,0004.27
2024-02-14 11:39:00,SystemResetWarning,0822.9,5.00,000.00,018.3,017.7,000.0,026.9,020.0,15.0,0000.0,0009.42,0004.78,0004.27
2024-02-14 11:40:00,SystemResetWarning,0823.1,5.01,000.00,018.3,017.7,000.0,026.9,020.0,14.7,0000.0,0009.09,0004.74,0004.25
2024-02-14 11:41:00,SystemResetWarning,0822.9,5.01,000.00,018.3,017.7,000.0,026.9,020.0,14.8,0000.0,0009.16,0004.71,0004.22
2024-02-14 11:42:00,SystemResetWarning,0822.7,5.00,000.00,018.3,017.7,000.0,026.9,020.0,14.7,0000.0,0009.77,0004.70,0004.20
2024-02-14 11:43:00,SystemResetWarning,0822.7,4.99,000.00,018.3,017.7,000.0,026.9,020.0,14.5,0000.0,0010.37,0004.74,0004.21
2024-02-14 11:44:00,SystemResetWarning,0822.6,5.00,000.00,018.3,017.7,000.0,026.8,020.0,14.6,0000.0,0009.65,0004.74,0004.22
2024-02-14 11:45:00,SystemResetWarning,0822.7,4.99,000.00,018.3,017.7,000.0,026.8,020.0,14.8,0000.0,0009.51,0004.74,0004.23
2024-02-14 11:46:00,SystemResetWarning,0822.6,5.00,000.00,018.3,017.7,000.0,026.8,020.0,14.7,0000.0,0009.50,0004.74,0004.23
2024-02-14 11:47:00,SystemResetWarning,0822.6,5.00,000.00,018.2,017.7,000.0,026.8,020.0,14.8,0000.0,0009.51,0004.71,0004.20
2024-02-14 11:48:00,SystemResetWarning,0822.6,5.00,000.00,018.2,017.7,000.0,026.8,020.0,14.9,0000.0,0009.41,0004.69,0004.20
2024-02-14 11:49:00,SystemResetWarning,0822.6,5.02,000.00,018.2,017.7,000.0,026.8,020.0,14.9,0000.0,0009.67,0004.66,0004.16
2024-02-14 11:50:00,SystemResetWarning,0822.8,4.99,000.00,018.2,017.7,000.0,026.8,020.0,14.6,0000.0,0009.80,0004.61,0004.10
2024-02-14 11:51:00,SystemResetWarning,0822.8,5.00,000.00,018.2,017.7,000.0,026.8,020.0,14.6,0000.0,0010.14,0004.60,0004.08
2024-02-14 11:52:00,SystemResetWarning,0822.5,5.00,000.00,018.2,017.7,000.0,026.8,020.0,14.7,0000.0,0009.91,0004.59,0004.09
2024-02-14 11:53:00,SystemResetWarning,0822.6,5.00,000.00,018.2,017.7,000.0,026.8,020.0,14.8,0000.0,0009.48,0004.57,0004.08
2024-02-14 11:54:00,SystemResetWarning,0823.0,5.00,000.00,018.2,017.7,000.0,026.8,020.0,14.8,0000.0,0009.04,0004.51,0004.07
2024-02-14 11:55:00,SystemResetWarning,0823.1,5.01,000.00,018.2,017.7,000.0,026.8,020.0,14.8,0000.0,0008.86,0004.47,0004.05
2024-02-14 11:56:00,SystemResetWarning,0822.7,5.01,000.00,018.2,017.7,000.0,026.8,020.0,14.9,0000.0,0009.47,0004.44,0004.02
2024-02-14 11:57:00,SystemResetWarning,0822.9,5.00,000.00,018.2,017.7,000.0,026.8,020.0,14.9,0000.0,0010.10,0004.41,0003.99
2024-02-14 11:58:00,SystemResetWarning,0822.9,4.99,000.00,018.2,017.7,000.0,026.8,020.0,15.0,0000.0,0010.07,0004.36,0003.95
2024-02-14 11:59:00,SystemResetWarning,0822.4,5.00,000.00,018.2,017.7,000.0,026.8,020.0,15.0,0000.0,0010.17,0004.36,0003.93
